Time,TemperatureF,DewpointF,PressureIn,WindDirection,WindDirectionDegrees,WindSpeedMPH,WindSpeedGustMPH,Humidity,HourlyPrecipIn,Conditions,Clouds,dailyrainin,SoftwareType,DateUTC
2013-04-21 07:52:00,51.0,-99.9,30.24,SSE,168,0.0,0.0,-999,0.00,,,0.00,,2013-04-21 14:52:00,
2013-04-21 08:02:00,53.0,-99.9,30.24,SSE,168,0.0,0.0,-999,0.00,,,0.00,,2013-04-21 15:02:00,
2013-04-21 08:12:00,53.0,-99.9,30.24,SSE,168,0.0,0.0,-999,0.00,,,0.00,,2013-04-21 15:12:00,
2013-04-21 08:22:00,56.0,-99.9,30.24,SSE,168,0.0,0.0,-999,0.00,,,0.00,,2013-04-21 15:22:00,
2013-04-21 08:33:00,57.0,-99.9,30.24,SSW,201,0.0,0.0,-999,0.00,,,0.00,,2013-04-21 15:33:00,
2013-04-21 08:43:00,57.0,-99.9,30.24,SSW,201,0.0,0.0,-999,0.00,,,0.00,,2013-04-21 15:43:00,
2013-04-21 08:53:00,60.0,-99.9,30.24,SSW,201,0.0,0.0,-999,0.00,,,0.00,,2013-04-21 15:53:00,
2013-04-21 09:03:00,62.0,-99.9,30.24,SSW,201,0.0,0.0,-999,0.00,,,0.00,,2013-04-21 16:03:00,
2013-04-21 09:13:00,64.0,-99.9,30.24,SSW,201,0.0,0.0,-999,0.00,,,0.00,,2013-04-21 16:13:00,
2013-04-21 09:23:00,64.0,-99.9,30.24,SSW,201,0.0,0.0,-999,0.00,,,0.00,,2013-04-21 16:23:00,
2013-04-21 09:33:00,66.0,-99.9,30.23,SSW,201,0.0,0.0,-999,0.00,,,0.00,,2013-04-21 16:33:00,
2013-04-21 09:42:00,66.0,-99.9,30.23,SSW,201,0.0,0.0,-999,0.00,,,0.00,,2013-04-21 16:42:00,
2013-04-21 09:53:00,69.0,-99.9,30.23,SSW,201,0.0,0.0,-999,0.00,,,0.00,,2013-04-21 16:53:00,
2013-04-21 10:02:00,72.0,-99.9,30.23,SSW,201,0.0,0.0,-999,0.00,,,0.00,,2013-04-21 17:02:00,
2013-04-21 10:12:00,73.0,-99.9,30.23,SSW,201,0.0,0.0,-999,0.00,,,0.00,,2013-04-21 17:12:00,
2013-04-21 10:23:00,73.0,-99.9,30.23,SSW,201,0.0,0.0,-999,0.00,,,0.00,,2013-04-21 17:23:00,
2013-04-21 10:32:00,76.0,-99.9,30.23,ESE,118,0.0,0.0,-999,0.00,,,0.00,,2013-04-21 17:32:00,
2013-04-21 10:42:00,76.0,-99.9,30.23,ESE,118,0.0,0.0,-999,0.00,,,0.00,,2013-04-21 17:42:00,
2013-04-21 10:52:00,76.0,-99.9,30.22,NNE,21,0.0,0.0,-999,0.00,,,0.00,,2013-04-21 17:52:00,
2013-04-21 11:02:00,78.0,-99.9,30.22,NE,53,0.0,6.0,-999,0.00,,,0.00,,2013-04-21 18:02:00,
2013-04-21 11:11:00,78.0,-99.9,30.22,NE,53,0.0,6.0,-999,0.00,,,0.00,,2013-04-21 18:11:00,
2013-04-21 11:22:00,78.0,-99.9,30.22,ENE,66,0.0,0.0,-999,0.00,,,0.00,,2013-04-21 18:22:00,
2013-04-21 11:33:00,80.0,-99.9,30.20,ENE,68,0.0,5.0,-999,0.00,,,0.00,,2013-04-21 18:33:00,
2013-04-21 11:42:00,80.0,-99.9,30.20,ENE,68,0.0,5.0,-999,0.00,,,0.00,,2013-04-21 18:42:00,
2013-04-21 11:52:00,78.0,-99.9,30.20,North,358,7.0,7.0,-999,0.00,,,0.00,,2013-04-21 18:52:00,
2013-04-21 12:02:00,80.0,-99.9,30.20,NNW,344,6.0,9.0,-999,0.00,,,0.00,,2013-04-21 19:02:00,
2013-04-21 12:12:00,80.0,-99.9,30.20,NNW,344,6.0,9.0,-999,0.00,,,0.00,,2013-04-21 19:12:00,
2013-04-21 12:22:00,81.0,-99.9,30.19,ESE,116,4.0,4.0,-999,0.00,,,0.00,,2013-04-21 19:22:00,
2013-04-21 12:32:00,79.0,-99.9,30.18,SW,217,2.0,0.0,-999,0.00,,,0.00,,2013-04-21 19:32:00,
2013-04-21 12:43:00,79.0,-99.9,30.18,SW,217,2.0,0.0,-999,0.00,,,0.00,,2013-04-21 19:43:00,
2013-04-21 12:52:00,80.0,-99.9,30.17,SSW,196,0.0,0.0,-999,0.00,,,0.00,,2013-04-21 19:52:00,
2013-04-21 13:02:00,81.0,-99.9,30.17,NNE,26,0.0,0.0,-999,0.00,,,0.00,,2013-04-21 20:02:00,
2013-04-21 13:11:00,80.0,-99.9,30.17,SW,236,1.0,6.0,-999,0.00,,,0.00,,2013-04-21 20:11:00,
2013-04-21 13:22:00,80.0,-99.9,30.17,SW,236,1.0,6.0,-999,0.00,,,0.00,,2013-04-21 20:22:00,
2013-04-21 13:32:00,81.0,-99.9,30.16,WNW,302,2.0,10.0,-999,0.00,,,0.00,,2013-04-21 20:32:00,
2013-04-21 13:42:00,81.0,-99.9,30.16,WNW,302,2.0,10.0,-999,0.00,,,0.00,,2013-04-21 20:42:00,
2013-04-21 13:52:00,81.0,-99.9,30.15,NNW,333,2.0,6.0,-999,0.00,,,0.00,,2013-04-21 20:52:00,
2013-04-21 14:02:00,81.0,-99.9,30.15,WNW,292,0.0,3.0,-999,0.00,,,0.00,,2013-04-21 21:02:00,
2013-04-21 14:12:00,82.0,-99.9,30.14,NW,306,0.0,0.0,-999,0.00,,,0.00,,2013-04-21 21:12:00,
2013-04-21 14:22:00,82.0,-99.9,30.14,NW,306,0.0,0.0,-999,0.00,,,0.00,,2013-04-21 21:22:00,
2013-04-21 14:33:00,82.0,-99.9,30.14,WNW,289,3.0,9.0,-999,0.00,,,0.00,,2013-04-21 21:33:00,
2013-04-21 14:43:00,82.0,-99.9,30.14,WNW,289,3.0,9.0,-999,0.00,,,0.00,,2013-04-21 21:43:00,
2013-04-21 14:53:00,82.0,-99.9,30.14,NW,315,4.0,8.0,-999,0.00,,,0.00,,2013-04-21 21:53:00,
2013-04-21 15:03:00,83.0,-99.9,30.13,NW,315,5.0,9.0,-999,0.00,,,0.00,,2013-04-21 22:03:00,
2013-04-21 15:12:00,83.0,-99.9,30.12,WNW,289,0.0,0.0,-999,0.00,,,0.00,,2013-04-21 22:12:00,
2013-04-21 15:22:00,83.0,-99.9,30.12,WNW,289,0.0,0.0,-999,0.00,,,0.00,,2013-04-21 22:22:00,
2013-04-21 15:33:00,83.0,-99.9,30.11,NNW,329,1.0,3.0,-999,0.00,,,0.00,,2013-04-21 22:33:00,
2013-04-21 15:43:00,83.0,-99.9,30.11,NNW,329,1.0,3.0,-999,0.00,,,0.00,,2013-04-21 22:43:00,
2013-04-21 15:53:00,83.0,-99.9,30.11,West,268,2.0,5.0,-999,0.00,,,0.00,,2013-04-21 22:53:00,
2013-04-21 16:02:00,84.0,-99.9,30.11,NW,310,0.0,4.0,-999,0.00,,,0.00,,2013-04-21 23:02:00,
2013-04-21 16:12:00,84.0,-99.9,30.11,NW,310,0.0,4.0,-999,0.00,,,0.00,,2013-04-21 23:12:00,
2013-04-21 16:22:00,83.0,-99.9,30.11,WNW,295,2.0,9.0,-999,0.00,,,0.00,,2013-04-21 23:22:00,
2013-04-21 16:32:00,84.0,-99.9,30.10,West,270,1.0,5.0,-999,0.00,,,0.00,,2013-04-21 23:32:00,
2013-04-21 16:43:00,84.0,-99.9,30.10,West,270,1.0,5.0,-999,0.00,,,0.00,,2013-04-21 23:43:00,
2013-04-21 16:52:00,83.0,-99.9,30.10,West,268,2.0,8.0,-999,0.00,,,0.00,,2013-04-21 23:52:00,
2013-04-21 17:02:00,84.0,-99.9,30.10,NW,319,2.0,6.0,-999,0.00,,,0.00,,2013-04-22 00:02:00,
2013-04-21 17:12:00,84.0,-99.9,30.10,NW,319,2.0,6.0,-999,0.00,,,0.00,,2013-04-22 00:12:00,
2013-04-21 17:22:00,84.0,-99.9,30.10,WNW,302,0.0,2.0,-999,0.00,,,0.00,,2013-04-22 00:22:00,
2013-04-21 17:32:00,84.0,-99.9,30.10,WNW,284,0.0,0.0,-999,0.00,,,0.00,,2013-04-22 00:32:00,
2013-04-21 17:42:00,84.0,-99.9,30.10,WNW,284,0.0,0.0,-999,0.00,,,0.00,,2013-04-22 00:42:00,
2013-04-21 17:52:00,84.0,-99.9,30.10,NW,310,0.0,6.0,-999,0.00,,,0.00,,2013-04-22 00:52:00,
2013-04-21 18:01:00,84.0,-99.9,30.10,North,350,3.0,5.0,-999,0.00,,,0.00,,2013-04-22 01:01:00,
2013-04-21 18:12:00,84.0,-99.9,30.10,North,350,3.0,5.0,-999,0.00,,,0.00,,2013-04-22 01:12:00,
2013-04-21 18:22:00,82.0,-99.9,30.10,WNW,299,5.0,6.0,-999,0.00,,,0.00,,2013-04-22 01:22:00,
2013-04-21 18:32:00,81.0,-99.9,30.10,NNW,329,1.0,6.0,-999,0.00,,,0.00,,2013-04-22 01:32:00,
2013-04-21 18:42:00,81.0,-99.9,30.10,NNW,329,1.0,6.0,-999,0.00,,,0.00,,2013-04-22 01:42:00,
2013-04-21 18:52:00,79.0,-99.9,30.10,WNW,293,1.0,5.0,-999,0.00,,,0.00,,2013-04-22 01:52:00,
2013-04-21 19:02:00,78.0,-99.9,30.10,NW,317,0.0,0.0,-999,0.00,,,0.00,,2013-04-22 02:02:00,
2013-04-21 19:12:00,76.0,-99.9,30.10,NW,326,0.0,0.0,-999,0.00,,,0.00,,2013-04-22 02:12:00,
2013-04-21 19:22:00,76.0,-99.9,30.10,NW,326,0.0,0.0,-999,0.00,,,0.00,,2013-04-22 02:22:00,
2013-04-21 19:32:00,75.0,-99.9,30.11,NNW,333,0.0,0.0,-999,0.00,,,0.00,,2013-04-22 02:32:00,
2013-04-21 19:42:00,75.0,-99.9,30.11,NNW,333,0.0,0.0,-999,0.00,,,0.00,,2013-04-22 02:42:00,
2013-04-21 19:52:00,74.0,-99.9,30.11,NNW,333,0.0,0.0,-999,0.00,,,0.00,,2013-04-22 02:52:00,
2013-04-21 20:02:00,73.0,-99.9,30.11,NNW,333,0.0,0.0,-999,0.00,,,0.00,,2013-04-22 03:02:00,
2013-04-21 20:11:00,73.0,-99.9,30.11,NNW,333,0.0,0.0,-999,0.00,,,0.00,,2013-04-22 03:11:00,
2013-04-21 20:22:00,72.0,-99.9,30.12,NNW,333,0.0,0.0,-999,0.00,,,0.00,,2013-04-22 03:22:00,
2013-04-21 20:33:00,70.0,-99.9,30.12,NNW,333,0.0,0.0,-999,0.00,,,0.00,,2013-04-22 03:33:00,
2013-04-21 20:43:00,70.0,-99.9,30.12,NNW,333,0.0,0.0,-999,0.00,,,0.00,,2013-04-22 03:43:00,
2013-04-21 20:53:00,71.0,-99.9,30.13,NNW,333,0.0,0.0,-999,0.00,,,0.00,,2013-04-22 03:53:00,
2013-04-21 21:03:00,69.0,-99.9,30.14,NNW,333,0.0,0.0,-999,0.00,,,0.00,,2013-04-22 04:03:00,
2013-04-21 21:13:00,69.0,-99.9,30.14,NNW,333,0.0,0.0,-999,0.00,,,0.00,,2013-04-22 04:13:00,
2013-04-21 21:23:00,67.0,-99.9,30.14,NNW,333,0.0,0.0,-999,0.00,,,0.00,,2013-04-22 04:23:00,
2013-04-21 21:33:00,68.0,-99.9,30.14,NNW,333,0.0,0.0,-999,0.00,,,0.00,,2013-04-22 04:33:00,
2013-04-21 21:43:00,68.0,-99.9,30.14,NNW,333,0.0,0.0,-999,0.00,,,0.00,,2013-04-22 04:43:00,
2013-04-21 21:53:00,68.0,-99.9,30.15,NNW,333,0.0,0.0,-999,0.00,,,0.00,,2013-04-22 04:53:00,
2013-04-21 22:03:00,68.0,-99.9,30.15,NNW,333,0.0,0.0,-999,0.00,,,0.00,,2013-04-22 05:03:00,
2013-04-21 22:12:00,68.0,-99.9,30.15,NNW,333,0.0,0.0,-999,0.00,,,0.00,,2013-04-22 05:12:00,
2013-04-21 22:23:00,68.0,-99.9,30.15,NNW,333,0.0,0.0,-999,0.00,,,0.00,,2013-04-22 05:23:00,
2013-04-21 22:33:00,66.0,-99.9,30.14,NNW,333,0.0,0.0,-999,0.00,,,0.00,,2013-04-22 05:33:00,
2013-04-21 22:42:00,66.0,-99.9,30.14,NNW,333,0.0,0.0,-999,0.00,,,0.00,,2013-04-22 05:42:00,
2013-04-21 22:52:00,66.0,-99.9,30.14,NNW,333,0.0,0.0,-999,0.00,,,0.00,,2013-04-22 05:52:00,
2013-04-21 23:02:00,64.0,-99.9,30.15,South,178,0.0,0.0,-999,0.00,,,0.00,,2013-04-22 06:02:00,
2013-04-21 23:12:00,64.0,-99.9,30.15,South,178,0.0,0.0,-999,0.00,,,0.00,,2013-04-22 06:12:00,
2013-04-21 23:22:00,64.0,-99.9,30.15,South,178,0.0,0.0,-999,0.00,,,0.00,,2013-04-22 06:22:00,
2013-04-21 23:32:00,61.0,-99.9,30.15,SSW,198,0.0,0.0,-999,0.00,,,0.00,,2013-04-22 06:32:00,
2013-04-21 23:42:00,61.0,-99.9,30.15,SSW,198,0.0,0.0,-999,0.00,,,0.00,,2013-04-22 06:42:00,
2013-04-21 23:52:00,61.0,-99.9,30.15,SSW,198,0.0,0.0,-999,0.00,,,0.00,,2013-04-22 06:52:00,